[[{"header":{"parameterUnit":"m.s-1","parameterCategory":1,"la1":30.2991,"la2":30.254,"lo1":-89.0895,"lo2":-89.0444,"dy":0.0017,"dx":0.0017,"nx":28,"ny":28,"refTime":"2023-04-01T21:00:00:Z","depth":0,"parameterNumber":2,"parameterNumberName":"U-component_of_WINDS"},"data":[0,0,0,0,0,0,0,0,0,0,0,0,0,0,0,0,0,0,0,0,0,0,0,0,0,0,0,0,0,0,0,0,0,0,0,0,0,0,0,0,0,0,0,0,0,0,0,0,0,0,0,0,0,0,0,0,0,0,1.5221,1.5221,0,1.5221,1.5221,1.5221,1.5154,1.5152,1.515,1.5149,1.5153,1.5155,1.5157,0,0,0,0,0,0,0,0,0,0,0,0,0,1.5169,1.5171,1.5221,1.5221,1.5221,1.5221,1.5221,1.5221,1.5154,1.5152,1.515,1.5148,1.5153,1.5155,1.5157,0,0,0,0,0,0,0,0,0,0,0,0,0,1.5183,1.5171,1.5221,1.5188,1.5185,1.5221,1.5221,1.5221,1.5155,1.5152,1.5149,1.5147,1.5152,1.5154,1.5157,1.5226,0,0,1.5165,1.5166,0,0,0,0,0,0,0,0,1.5182,1.5185,1.5193,1.519,1.5187,1.5184,1.5204,1.5223,1.5155,1.5166,1.5149,1.5146,1.5166,1.5167,1.5173,1.5226,1.5226,1.5165,1.5167,1.5168,1.5169,0,0,0,0,0,0,0,1.5181,1.5184,1.5221,1.5193,1.5189,1.5174,1.5173,1.5207,1.5181,1.5165,1.516,1.5161,1.5164,1.5171,1.5173,1.5226,1.5165,1.5168,1.5169,1.517,1.5336,1.5338,0,0,0,0,0,0,1.5184,1.5184,1.5221,1.5221,1.5178,1.5177,1.5176,1.5188,1.5181,1.5177,1.5163,1.5158,1.5168,1.517,1.5173,1.5253,1.5168,1.517,1.5172,1.5333,1.5336,1.5339,0,0,0,0,0,0,1.5183,1.5188,1.5221,1.5201,1.5204,1.5181,1.5195,1.5189,1.5196,1.5179,1.5174,1.5175,1.5166,1.5169,1.5213,1.5252,1.5172,1.5174,1.533,1.5334,1.5338,1.5414,0,0,0,0,0,0,1.5182,1.5188,1.5213,1.5202,1.5205,1.526,1.5197,1.5191,1.52,1.5193,1.5188,1.5185,1.5164,1.5209,1.5215,1.5254,1.5176,1.5326,1.5332,1.5337,1.5408,1.542,1.543,0,0,0,0,0,1.5181,1.5236,1.5215,1.522,1.5236,1.5263,1.5265,1.5237,1.5204,1.5229,1.5218,1.5185,1.5246,1.5214,1.5221,1.5261,1.5323,1.533,1.5336,1.5402,1.5417,1.543,0,0,0,0,0,0,1.5254,1.5234,1.521,1.5263,1.5265,1.5251,1.5283,1.5254,1.5267,1.526,1.5227,1.5227,1.5276,1.5273,1.5237,1.5327,1.5279,1.5287,1.5327,1.5342,1.5353,1.5353,1.5178,0,0,0,0,0,1.5276,1.5298,1.5279,1.5328,1.533,1.5306,1.5317,1.5295,1.5297,1.5298,1.529,1.5293,1.5313,1.5327,1.5344,1.5406,1.5405,1.5437,1.5449,1.5458,1.5466,1.5498,1.5513,1.536,1.536,1.536,0,0,1.5322,1.5314,1.533,1.5343,1.5341,1.5366,1.5307,1.5336,1.5354,1.5302,1.5343,1.5337,1.5339,1.5392,1.5415,1.5391,1.5507,1.5466,1.5474,1.5476,1.5506,1.5521,1.5534,1.5365,1.5364,1.5363,0,0,1.5419,1.5415,1.5455,1.5454,1.5452,1.5436,1.5446,1.5436,1.543,1.5469,1.5431,1.5453,1.5488,1.5491,1.5497,1.5594,1.5565,1.5601,1.5661,1.5693,1.5705,1.5716,1.5751,1.5764,1.5608,1.5608,1.5609,0,1.5478,1.5512,1.5479,1.551,1.5517,1.5469,1.551,1.5511,1.5516,1.5523,1.5495,1.5537,1.5535,1.5588,1.5612,1.5618,1.5629,1.5602,1.5706,1.5716,1.5725,1.5758,1.5772,1.5613,1.5612,1.5612,1.5611,0,1.5584,1.5608,1.564,1.5644,1.5655,1.5691,1.5665,1.568,1.5657,1.5645,1.5686,1.5681,1.5697,1.5708,1.5687,1.5758,1.5743,1.5711,1.5663,1.5745,1.5775,1.5788,1.5619,1.5618,1.5616,1.5615,0,0,1.5728,1.5712,1.5725,1.5726,1.572,1.5739,1.5773,1.5786,1.5799,1.5804,1.5833,1.5863,1.5833,1.584,1.5819,1.5847,1.5925,1.5812,1.5811,1.5833,1.6003,1.6027,1.6042,1.5905,1.5907,1.5909,1.6003,0,1.5822,1.5877,1.5848,1.5908,1.593,1.5885,1.5914,1.5915,1.5904,1.5922,1.591,1.5932,1.5891,1.5895,1.592,1.591,1.5958,1.5902,1.5932,1.5933,1.5933,1.6058,1.6084,1.6173,1.6014,1.6016,1.6018,0,1.5939,1.5947,1.6008,1.5997,1.6006,1.6032,1.6042,1.606,1.606,1.605,1.6057,1.6029,1.6063,1.6014,1.606,1.6023,1.6033,1.603,1.6033,1.6035,1.5981,1.6064,1.62,1.6214,1.6036,1.6035,1.6034,0,1.6038,1.6064,1.6104,1.6106,1.6095,1.6115,1.6111,1.6108,1.6118,1.6127,1.6133,1.6147,1.6155,1.6166,1.6143,1.611,1.6193,1.6143,1.6187,1.6187,1.6207,1.6206,1.6347,1.6213,1.6213,1.6213,1.6212,0,1.6146,1.6186,1.6148,1.6173,1.6216,1.6183,1.6227,1.6219,1.6216,1.624,1.6202,1.6225,1.6193,1.6213,1.6195,1.6236,1.624,1.6234,1.6229,1.6237,1.6238,1.6244,1.6238,1.6216,1.6215,1.6215,1.6214,0,1.6264,1.6241,1.6281,1.6267,1.6264,1.6296,1.6284,1.6307,1.6293,1.6323,1.6328,1.6306,1.6328,1.6306,1.6327,1.6315,1.637,1.6356,1.637,1.6366,1.6411,1.6407,1.6561,1.658,1.6434,1.6435,1.6436,0,1.6335,1.6364,1.6352,1.6364,1.6362,1.6382,1.6391,1.636,1.6372,1.6373,1.6396,1.6414,1.6427,1.6464,1.6451,1.6466,1.6452,1.6505,1.6455,1.6462,1.6453,1.6452,1.6455,1.6516,1.6518,1.6519,1.652,0,1.6463,1.645,1.6464,1.6474,1.6485,1.6492,1.6496,1.6508,1.6476,1.6491,1.6512,1.6522,1.6542,1.656,1.6572,1.6569,1.654,1.6536,1.6547,1.6556,1.6563,1.656,1.6398,1.6533,1.6532,1.6531,1.653,1.6529,1.656,1.6583,1.6578,1.6595,1.6594,1.6599,1.6619,1.6607,1.6623,1.6635,1.6617,1.6642,1.6641,1.6653,1.6655,1.6675,1.6653,1.6669,1.6673,1.6677,1.6684,1.6559,1.6677,1.6677,1.6676,1.6676,1.6676,0,1.6686,1.668,1.6696,1.6702,1.6715,1.6684,1.6687,1.67,1.6723,1.6724,1.6736,1.676,1.6778,1.6766,1.6781,1.6799,1.6786,1.6804,1.6803,1.6803,1.6703,1.6692,1.6815,1.6815,1.6815,1.6815,1.6815,1.6815,1.6753,1.6791,1.6777,1.6815,1.6809,1.6832,1.6836,1.6841,1.6841,1.6868,1.6882,1.6873,1.6869,1.6883,1.6898,1.6894,1.6902,1.6925,1.6917,1.6824,1.681,1.6797,1.6786,1.6927,1.6927,1.7015,1.7015,1.7016]},{"header":{"parameterUnit":"m.s-1","parameterCategory":1,"la1":30.2991,"la2":30.254,"lo1":-89.0895,"lo2":-89.0444,"dy":0.0017,"dx":0.0017,"nx":28,"ny":28,"refTime":"2023-04-01T21:00:00:Z","depth":0,"parameterNumber":3,"parameterNumberName":"V-component_of_WINDS"},"data":[0,0,0,0,0,0,0,0,0,0,0,0,0,0,0,0,0,0,0,0,0,0,0,0,0,0,0,0,0,0,0,0,0,0,0,0,0,0,0,0,0,0,0,0,0,0,0,0,0,0,0,0,0,0,0,0,0,0,1.9943,1.9945,0,2.0116,2.0118,2.012,2.0155,2.0153,2.0152,2.0151,2.0321,2.0327,2.0332,0,0,0,0,0,0,0,0,0,0,0,0,0,1.9635,1.964,1.9943,1.9945,1.9948,2.0116,2.0118,2.0121,2.0155,2.0153,2.0152,2.015,2.0319,2.0326,2.0333,0,0,0,0,0,0,0,0,0,0,0,0,0,1.9784,1.9642,1.9943,1.9985,1.9991,2.0115,2.0118,2.0121,2.0155,2.0153,2.0151,2.015,2.0317,2.0325,2.0334,2.0426,0,0,2.036,2.0364,0,0,0,0,0,0,0,0,1.9776,1.9795,1.9977,1.9982,1.9989,2.0112,2.0072,2.0223,2.0156,2.0093,2.0151,2.0149,2.0253,2.0266,2.0303,2.0434,2.0442,2.0361,2.0366,2.037,2.0372,0,0,0,0,0,0,0,1.9765,1.9788,2.0011,1.9979,1.9987,1.9993,2.0012,2.0101,2.0181,2.0098,2.0101,2.0121,2.0255,2.0294,2.0307,2.0444,2.0361,2.0368,2.0374,2.0377,2.0658,2.066,0,0,0,0,0,0,1.9749,1.9779,2.0006,2.0017,1.9876,2.0,2.0021,2.0074,2.018,2.0195,2.0123,2.0122,2.0281,2.0297,2.0313,2.0427,2.037,2.0378,2.0383,2.0655,2.0658,2.0661,0,0,0,0,0,0,1.9742,1.9768,1.9999,1.9899,1.9929,2.0008,2.0067,2.0079,2.0118,2.0199,2.0213,2.0148,2.028,2.0301,2.0398,2.0434,2.0382,2.039,2.0653,2.0656,2.0659,2.0657,0,0,0,0,0,0,1.9733,1.9766,1.9804,1.99,1.9934,2.0083,2.0069,2.0084,2.0134,2.0135,2.0227,2.024,2.028,2.0385,2.0407,2.0445,2.0396,2.065,2.0654,2.0658,2.0654,2.066,2.0665,0,0,0,0,0,1.9722,1.9795,1.9806,1.9833,1.9984,2.0085,2.0105,2.0151,2.0136,2.0174,2.0226,2.0237,2.0427,2.0395,2.0419,2.046,2.0648,2.0653,2.0658,2.0652,2.0659,2.0665,0,0,0,0,0,0,1.9699,1.9808,1.9821,1.9928,1.9997,2.0091,2.014,2.0157,2.023,2.0227,2.0279,2.0299,2.0393,2.0436,2.0399,2.0554,2.0536,2.0546,2.0523,2.053,2.0535,2.0522,2.0403,0,0,0,0,0,1.9707,1.9783,1.9873,1.9959,1.9993,2.006,2.0106,2.0136,2.0209,2.0237,2.0297,2.0365,2.0439,2.0487,2.056,2.0661,2.068,2.0701,2.0706,2.071,2.0718,2.0772,2.0782,2.0678,2.0678,2.0677,0,0,1.9723,1.9792,1.9837,1.9956,2.0013,2.0088,2.0085,2.0164,2.022,2.0249,2.0344,2.039,2.0469,2.0567,2.0614,2.0607,2.0751,2.0717,2.0719,2.0725,2.0779,2.0788,2.0797,2.0681,2.068,2.068,0,0,1.9791,1.9852,1.9929,1.9987,2.0074,2.0118,2.0136,2.0228,2.0259,2.0357,2.038,2.0445,2.0573,2.0628,2.0672,2.076,2.0772,2.0782,2.0809,2.0861,2.087,2.0877,2.0907,2.0917,2.079,2.079,2.079,0,1.9799,1.9916,1.9966,2.0045,2.0096,2.0128,2.0205,2.0257,2.0363,2.0396,2.0387,2.0548,2.0603,2.0714,2.0735,2.0771,2.0792,2.0771,2.0865,2.0873,2.0881,2.0909,2.092,2.079,2.079,2.079,2.079,0,1.9921,2.0001,2.0052,2.0156,2.0212,2.029,2.0349,2.04,2.0424,2.0468,2.0565,2.0633,2.072,2.0749,2.0772,2.0863,2.0855,2.0855,2.0837,2.089,2.0918,2.0929,2.0791,2.0791,2.0791,2.0791,0,0,1.9979,2.0109,2.0127,2.0174,2.0272,2.0333,2.0411,2.0498,2.054,2.0611,2.0676,2.0783,2.0783,2.0834,2.0864,2.091,2.0973,2.0904,2.0907,2.0913,2.1074,2.1072,2.1084,2.0982,2.0984,2.0986,2.1066,0,2.0057,2.02,2.0247,2.0364,2.0437,2.0468,2.0536,2.0601,2.0644,2.0711,2.0757,2.0832,2.0827,2.0858,2.0905,2.0955,2.1005,2.095,2.104,2.1043,2.1018,2.1099,2.1099,2.1171,2.1078,2.108,2.1081,0,2.0168,2.0243,2.0368,2.0456,2.0488,2.0549,2.0631,2.0695,2.077,2.0797,2.0854,2.088,2.096,2.0938,2.1046,2.1008,2.1047,2.1077,2.1081,2.109,2.1064,2.1109,2.1196,2.1206,2.1099,2.1097,2.1096,0,2.0195,2.0327,2.0419,2.0459,2.0564,2.0605,2.065,2.0723,2.0772,2.0843,2.0875,2.0954,2.0997,2.1056,2.1102,2.1082,2.1206,2.1188,2.1229,2.1227,2.1253,2.125,2.1345,2.128,2.128,2.1279,2.1279,0,2.0277,2.0352,2.0433,2.049,2.0573,2.0626,2.0706,2.0753,2.0817,2.0881,2.0912,2.097,2.1028,2.1094,2.113,2.1213,2.1232,2.1255,2.1263,2.1252,2.1249,2.1278,2.1273,2.1282,2.1282,2.1281,2.1281,0,2.0322,2.038,2.0482,2.0574,2.0598,2.0656,2.0733,2.0787,2.0832,2.0912,2.0933,2.1002,2.108,2.1133,2.1232,2.1256,2.1346,2.1354,2.1322,2.1326,2.1363,2.1358,2.1479,2.1497,2.142,2.1421,2.1422,0,2.037,2.0428,2.0527,2.0573,2.0619,2.0693,2.0744,2.0797,2.0847,2.0936,2.0979,2.106,2.1128,2.1251,2.1308,2.1384,2.1393,2.143,2.1404,2.139,2.1391,2.1387,2.1392,2.1433,2.1434,2.1434,2.1435,0,2.0448,2.0474,2.0547,2.063,2.069,2.0757,2.0824,2.0859,2.0923,2.0978,2.106,2.1113,2.1215,2.1294,2.1375,2.1419,2.1437,2.1443,2.1456,2.1444,2.1422,2.1433,2.1332,2.1439,2.1439,2.1439,2.1438,2.1438,2.0495,2.0548,2.0626,2.0706,2.0762,2.0824,2.088,2.0931,2.1002,2.1091,2.1117,2.1202,2.1272,2.1384,2.1428,2.1493,2.1489,2.1509,2.1513,2.1517,2.1517,2.1413,2.1508,2.1508,2.1508,2.1508,2.1508,0,2.0573,2.0625,2.0699,2.0792,2.0855,2.0869,2.0943,2.0994,2.1069,2.1135,2.1201,2.1294,2.1371,2.1434,2.1512,2.1552,2.1562,2.157,2.1567,2.1577,2.1516,2.1497,2.1561,2.1561,2.1561,2.1561,2.1561,2.1561,2.0622,2.0712,2.0747,2.0864,2.0915,2.1,2.1041,2.1098,2.1151,2.1254,2.1319,2.136,2.1424,2.1508,2.1577,2.1594,2.162,2.1627,2.1645,2.1587,2.1581,2.1575,2.1557,2.1633,2.1633,2.17,2.17,2.1701]}]]